QPF
0.11 0.10 0.07 0.04 0.05 0.05 0.02 0.01 0.00 0.01 0.01 0.01 0.00 0.00 0.00 0.00 0.00 0.00 0.00 0.00 0.00 0.00 0.00 0.00 0.00 0.00 0.00 0.00 0.00 0.00 0.00 0.01 0.01 0.01 0.01 0.01 0.00 0.00 0.00 0.01 0.00 0.00 0.00 0.01
0.09 0.07 0.03 0.03 0.04 0.07 0.06 0.03 0.01 0.00 0.01 0.01 0.00 0.00 0.00 0.00 0.00 0.00 0.00 0.00 0.00 0.00 0.00 0.00 0.00 0.00 0.00 0.00 0.00 0.00 0.00 0.00 0.01 0.01 0.01 0.01 0.01 0.01 0.01 0.01 0.00 0.01 0.01 0.01
0.05 0.03 0.03 0.04 0.06 0.09 0.09 0.05 0.02 0.01 0.00 0.01 0.01 0.00 0.00 0.00 0.00 0.00 0.00 0.00 0.00 0.00 0.00 0.00 0.00 0.00 0.00 0.00 0.00 0.00 0.00 0.00 0.00 0.01 0.01 0.01 0.01 0.01 0.01 0.01 0.01 0.02 0.02 0.02
0.05 0.03 0.05 0.05 0.05 0.08 0.09 0.05 0.03 0.02 0.01 0.01 0.01 0.00 0.00 0.00 0.00 0.00 0.00 0.00 0.00 0.00 0.00 0.00 0.00 0.00 0.00 0.00 0.00 0.00 0.00 0.00 0.00 0.01 0.01 0.01 0.01 0.01 0.01 0.01 0.01 0.01 0.01 0.01
0.06 0.04 0.05 0.05 0.04 0.06 0.08 0.05 0.04 0.02 0.02 0.02 0.01 0.00 0.00 0.00 0.00 0.00 0.00 0.00 0.00 0.00 0.00 0.00 0.00 0.00 0.00 0.00 0.00 0.00 0.00 0.00 0.00 0.00 0.01 0.01 0.00 0.01 0.01 0.01 0.00 0.01 0.01 0.01
0.05 0.05 0.06 0.05 0.04 0.05 0.07 0.08 0.06 0.04 0.05 0.05 0.01 0.00 0.00 0.00 0.00 0.00 0.00 0.00 0.00 0.00 0.00 0.00 0.00 0.00 0.00 0.00 0.00 0.00 0.00 0.00 0.00 0.00 0.00 0.01 0.01 0.01 0.01 0.01 0.01 0.01 0.01 0.01
0.06 0.05 0.06 0.06 0.06 0.06 0.08 0.12 0.15 0.13 0.08 0.03 0.01 0.01 0.00 0.00 0.00 0.00 0.00 0.00 0.00 0.00 0.00 0.00 0.00 0.00 0.00 0.00 0.00 0.00 0.00 0.00 0.00 0.00 0.00 0.00 0.00 0.01 0.01 0.01 0.01 0.01 0.01 0.01
0.06 0.07 0.07 0.07 0.07 0.07 0.07 0.07 0.08 0.06 0.02 0.00 0.00 0.00 0.00 0.00 0.00 0.00 0.00 0.00 0.00 0.00 0.00 0.00 0.00 0.00 0.00 0.00 0.00 0.00 0.00 0.00 0.00 0.00 0.00 0.00 0.00 0.00 0.00 0.00 0.00 0.00 0.00 0.00
0.06 0.07 0.06 0.06 0.06 0.05 0.06 0.05 0.04 0.03 0.01 0.00 0.00 0.00 0.00 0.00 0.00 0.00 0.00 0.00 0.00 0.00 0.00 0.00 0.00 0.00 0.00 0.00 0.00 0.00 0.00 0.00 0.00 0.00 0.00 0.00 0.00 0.00 0.00 0.00 0.00 0.00 0.00 0.00
0.07 0.08 0.06 0.06 0.06 0.06 0.04 0.03 0.03 0.03 0.03 0.01 0.00 0.00 0.00 0.00 0.00 0.00 0.00 0.00 0.00 0.00 0.00 0.00 0.00 0.00 0.00 0.00 0.00 0.00 0.00 0.00 0.00 0.00 0.00 0.00 0.00 0.00 0.00 0.00 0.00 0.00 0.00 0.00
0.06 0.07 0.07 0.07 0.06 0.04 0.03 0.03 0.02 0.02 0.02 0.01 0.01 0.00 0.00 0.00 0.00 0.00 0.00 0.00 0.00 0.00 0.00 0.00 0.00 0.00 0.00 0.00 0.00 0.00 0.00 0.00 0.00 0.00 0.00 0.00 0.00 0.00 0.00 0.00 0.00 0.00 0.00 0.00
0.04 0.04 0.04 0.04 0.02 0.01 0.01 0.01 0.01 0.01 0.01 0.00 0.00 0.00 0.00 0.00 0.00 0.00 0.00 0.00 0.00 0.00 0.00 0.00 0.00 0.00 0.00 0.00 0.00 0.00 0.00 0.00 0.00 0.00 0.00 0.00 0.00 0.00 0.00 0.00 0.00 0.00 0.00 0.00
0.04 0.02 0.02 0.02 0.02 0.01 0.01 0.01 0.00 0.00 0.01 0.00 0.00 0.00 0.00 0.00 0.00 0.00 0.00 0.00 0.00 0.00 0.00 0.00 0.00 0.00 0.00 0.00 0.00 0.00 0.00 0.00 0.00 0.00 0.00 0.00 0.00 0.00 0.00 0.00 0.00 0.00 0.00 0.00
0.03 0.01 0.01 0.01 0.00 0.00 0.00 0.00 0.00 0.00 0.01 0.00 0.00 0.00 0.00 0.00 0.00 0.00 0.00 0.00 0.00 0.00 0.00 0.00 0.00 0.00 0.00 0.00 0.00 0.00 0.00 0.00 0.00 0.00 0.00 0.00 0.00 0.00 0.00 0.00 0.00 0.00 0.00 0.00
0.02 0.01 0.00 0.00 0.00 0.00 0.00 0.00 0.00 0.00 0.00 0.00 0.00 0.00 0.00 0.00 0.00 0.00 0.00 0.00 0.00 0.00 0.00 0.00 0.00 0.00 0.00 0.00 0.00 0.00 0.00 0.00 0.00 0.00 0.00 0.00 0.00 0.00 0.00 0.00 0.00 0.00 0.00 0.00
0.01 0.00 0.00 0.00 0.00 0.00 0.00 0.00 0.00 0.00 0.00 0.00 0.00 0.00 0.00 0.00 0.00 0.00 0.00 0.00 0.00 0.00 0.00 0.00 0.00 0.00 0.00 0.00 0.00 0.00 0.00 0.00 0.00 0.00 0.00 0.00 0.00 0.00 0.00 0.00 0.00 0.00 0.00 0.00
0.00 0.00 0.01 0.00 0.00 0.00 0.00 0.00 0.00 0.00 0.00 0.00 0.00 0.00 0.00 0.00 0.00 0.00 0.00 0.00 0.00 0.00 0.00 0.00 0.00 0.00 0.00 0.00 0.00 0.00 0.00 0.00 0.00 0.00 0.00 0.00 0.00 0.00 0.00 0.00 0.00 0.00 0.00 0.00
0.00 0.01 0.01 0.00 0.00 0.00 0.00 0.00 0.00 0.00 0.00 0.00 0.00 0.00 0.00 0.00 0.00 0.00 0.00 0.00 0.00 0.00 0.00 0.00 0.00 0.00 0.00 0.00 0.00 0.00 0.00 0.00 0.00 0.00 0.00 0.00 0.00 0.00 0.00 0.00 0.00 0.00 0.00 0.00
0.00 0.01 0.01 0.01 0.00 0.00 0.00 0.00 0.00 0.00 0.00 0.00 0.00 0.00 0.00 0.00 0.00 0.00 0.00 0.00 0.00 0.00 0.00 0.00 0.00 0.00 0.00 0.00 0.00 0.00 0.00 0.00 0.00 0.00 0.00 0.00 0.00 0.00 0.00 0.00 0.00 0.00 0.00 0.00
0.00 0.00 0.01 0.01 0.01 0.00 0.00 0.00 0.00 0.00 0.00 0.00 0.00 0.00 0.00 0.00 0.00 0.00 0.00 0.00 0.00 0.00 0.00 0.00 0.00 0.00 0.00 0.00 0.00 0.00 0.00 0.00 0.00 0.00 0.00 0.00 0.00 0.00 0.00 0.00 0.00 0.00 0.00 0.00
0.00 0.01 0.01 0.01 0.01 0.00 0.00 0.00 0.00 0.01 0.01 0.00 0.00 0.00 0.00 0.00 0.00 0.00 0.00 0.00 0.00 0.00 0.00 0.00 0.00 0.00 0.00 0.00 0.00 0.00 0.00 0.00 0.00 0.00 0.00 0.00 0.00 0.00 0.00 0.00 0.00 0.00 0.00 0.00
0.00 0.00 0.00 0.00 0.01 0.00 0.00 0.00 0.00 0.00 0.00 0.00 0.00 0.00 0.00 0.00 0.00 0.00 0.00 0.00 0.00 0.00 0.00 0.00 0.00 0.00 0.00 0.00 0.00 0.00 0.00 0.00 0.00 0.00 0.00 0.00 0.00 0.00 0.00 0.00 0.00 0.00 0.00 0.00
0.00 0.00 0.00 0.00 0.00 0.00 0.00 0.00 0.00 0.00 0.01 0.01 0.01 0.00 0.00 0.00 0.00 0.00 0.00 0.00 0.00 0.00 0.00 0.00 0.00 0.00 0.00 0.00 0.00 0.00 0.00 0.00 0.00 0.00 0.00 0.00 0.00 0.00 0.00 0.00 0.00 0.00 0.00 0.00
0.00 0.00 0.00 0.00 0.00 0.00 0.00 0.00 0.00 0.00 0.00 0.01 0.01 0.01 0.01 0.01 0.01 0.01 0.01 0.01 0.00 0.00 0.00 0.00 0.00 0.00 0.00 0.00 0.00 0.00 0.00 0.00 0.00 0.00 0.00 0.00 0.00 0.00 0.00 0.00 0.00 0.00 0.00 0.00
0.00 0.00 0.00 0.00 0.00 0.00 0.00 0.00 0.00 0.00 0.00 0.00 0.00 0.00 0.00 0.00 0.00 0.01 0.01 0.01 0.00 0.00 0.00 0.00 0.00 0.00 0.00 0.00 0.00 0.00 0.00 0.00 0.00 0.00 0.00 0.00 0.00 0.00 0.00 0.00 0.00 0.00 0.00 0.00
0.00 0.00 0.00 0.00 0.00 0.00 0.00 0.00 0.00 0.00 0.00 0.00 0.00 0.00 0.00 0.00 0.00 0.01 0.01 0.01 0.00 0.00 0.00 0.00 0.00 0.00 0.00 0.00 0.00 0.00 0.00 0.00 0.00 0.00 0.00 0.00 0.00 0.00 0.00 0.00 0.00 0.00 0.00 0.00
MSLP
1014.35 1014.50 1014.70 1014.93 1015.18 1015.45 1015.71 1015.96 1016.16 1016.29 1016.33 1016.26 1016.08 1015.81 1015.47 1015.11 1014.77 1014.48 1014.26 1014.14 1014.10 1014.11 1014.17 1014.23 1014.27 1014.29 1014.29 1014.28 1014.30 1014.37 1014.50 1014.70 1014.96 1015.28 1015.61 1015.92 1016.21 1016.44 1016.63 1016.76 1016.88 1016.99 1017.13 1017.30
1014.64 1014.69 1014.80 1014.96 1015.18 1015.45 1015.76 1016.06 1016.32 1016.51 1016.58 1016.52 1016.32 1016.01 1015.62 1015.21 1014.82 1014.50 1014.28 1014.16 1014.14 1014.18 1014.25 1014.31 1014.34 1014.34 1014.31 1014.27 1014.26 1014.30 1014.42 1014.61 1014.88 1015.19 1015.51 1015.81 1016.06 1016.24 1016.37 1016.44 1016.49 1016.56 1016.65 1016.79
1014.91 1014.89 1014.92 1015.04 1015.25 1015.54 1015.88 1016.23 1016.54 1016.76 1016.84 1016.76 1016.51 1016.14 1015.68 1015.19 1014.75 1014.40 1014.17 1014.07 1014.08 1014.16 1014.27 1014.36 1014.41 1014.41 1014.37 1014.31 1014.28 1014.30 1014.41 1014.59 1014.85 1015.16 1015.46 1015.74 1015.96 1016.11 1016.18 1016.20 1016.19 1016.20 1016.24 1016.34
1015.11 1015.04 1015.05 1015.16 1015.37 1015.69 1016.07 1016.46 1016.80 1017.02 1017.08 1016.95 1016.63 1016.17 1015.61 1015.05 1014.55 1014.17 1013.94 1013.87 1013.92 1014.06 1014.23 1014.38 1014.48 1014.51 1014.49 1014.43 1014.39 1014.40 1014.49 1014.66 1014.90 1015.19 1015.48 1015.73 1015.93 1016.04 1016.07 1016.05 1016.00 1015.95 1015.94 1016.00
1015.19 1015.12 1015.14 1015.26 1015.51 1015.87 1016.29 1016.70 1017.05 1017.25 1017.26 1017.06 1016.65 1016.09 1015.44 1014.80 1014.24 1013.83 1013.61 1013.58 1013.70 1013.92 1014.18 1014.41 1014.59 1014.67 1014.69 1014.65 1014.61 1014.61 1014.68 1014.82 1015.03 1015.29 1015.55 1015.79 1015.96 1016.05 1016.06 1016.01 1015.93 1015.85 1015.80 1015.80
1015.15 1015.11 1015.16 1015.33 1015.63 1016.03 1016.48 1016.91 1017.25 1017.41 1017.36 1017.07 1016.57 1015.91 1015.17 1014.45 1013.85 1013.44 1013.24 1013.25 1013.45 1013.77 1014.14 1014.48 1014.75 1014.91 1014.99 1014.99 1014.96 1014.95 1014.98 1015.09 1015.26 1015.48 1015.71 1015.92 1016.08 1016.16 1016.17 1016.12 1016.03 1015.93 1015.85 1015.81
1014.99 1015.00 1015.11 1015.34 1015.69 1016.13 1016.60 1017.03 1017.34 1017.46 1017.35 1016.98 1016.39 1015.65 1014.84 1014.07 1013.45 1013.03 1012.87 1012.95 1013.23 1013.65 1014.13 1014.59 1014.97 1015.23 1015.37 1015.42 1015.42 1015.40 1015.41 1015.48 1015.60 1015.77 1015.97 1016.15 1016.30 1016.39 1016.42 1016.38 1016.31 1016.21 1016.12 1016.05
1014.75 1014.83 1015.00 1015.29 1015.68 1016.14 1016.62 1017.04 1017.32 1017.39 1017.21 1016.78 1016.13 1015.33 1014.49 1013.70 1013.08 1012.68 1012.56 1012.70 1013.07 1013.59 1014.17 1014.74 1015.22 1015.58 1015.81 1015.92 1015.95 1015.94 1015.93 1015.97 1016.05 1016.17 1016.33 1016.49 1016.64 1016.74 1016.79 1016.79 1016.75 1016.68 1016.59 1016.51
1014.48 1014.62 1014.85 1015.18 1015.60 1016.07 1016.54 1016.93 1017.17 1017.20 1016.97 1016.51 1015.83 1015.02 1014.17 1013.40 1012.79 1012.43 1012.35 1012.55 1012.97 1013.57 1014.24 1014.89 1015.48 1015.93 1016.24 1016.42 1016.50 1016.52 1016.51 1016.53 1016.58 1016.67 1016.80 1016.94 1017.09 1017.21 1017.29 1017.33 1017.33 1017.29 1017.22 1017.14
1014.21 1014.41 1014.69 1015.05 1015.47 1015.93 1016.37 1016.73 1016.92 1016.91 1016.66 1016.19 1015.52 1014.73 1013.92 1013.18 1012.62 1012.30 1012.26 1012.48 1012.95 1013.58 1014.30 1015.02 1015.67 1016.21 1016.61 1016.86 1017.01 1017.07 1017.10 1017.12 1017.16 1017.23 1017.34 1017.48 1017.62 1017.76 1017.87 1017.95 1017.98 1017.98 1017.94 1017.87
1013.99 1014.24 1014.54 1014.91 1015.32 1015.75 1016.15 1016.45 1016.61 1016.56 1016.31 1015.84 1015.21 1014.48 1013.73 1013.06 1012.56 1012.28 1012.25 1012.49 1012.95 1013.58 1014.31 1015.06 1015.76 1016.36 1016.83 1017.18 1017.41 1017.55 1017.63 1017.69 1017.75 1017.83 1017.93 1018.06 1018.21 1018.35 1018.48 1018.58 1018.65 1018.68 1018.66 1018.60
1013.83 1014.11 1014.43 1014.79 1015.17 1015.55 1015.89 1016.14 1016.24 1016.17 1015.92 1015.48 1014.91 1014.25 1013.59 1013.00 1012.55 1012.31 1012.30 1012.52 1012.96 1013.55 1014.25 1014.99 1015.71 1016.35 1016.90 1017.33 1017.66 1017.89 1018.06 1018.19 1018.29 1018.40 1018.52 1018.65 1018.79 1018.94 1019.07 1019.18 1019.26 1019.31 1019.30 1019.26
1013.72 1014.01 1014.34 1014.68 1015.02 1015.34 1015.61 1015.78 1015.83 1015.73 1015.48 1015.08 1014.57 1014.00 1013.43 1012.92 1012.55 1012.34 1012.33 1012.53 1012.92 1013.46 1014.11 1014.81 1015.52 1016.19 1016.80 1017.32 1017.75 1018.09 1018.37 1018.58 1018.76 1018.92 1019.06 1019.21 1019.34 1019.48 1019.61 1019.71 1019.79 1019.84 1019.85 1019.82
1013.62 1013.93 1014.25 1014.56 1014.85 1015.11 1015.29 1015.39 1015.37 1015.23 1014.97 1014.60 1014.16 1013.67 1013.19 1012.78 1012.47 1012.30 1012.31 1012.48 1012.81 1013.29 1013.88 1014.53 1015.22 1015.91 1016.56 1017.16 1017.69 1018.15 1018.54 1018.86 1019.12 1019.34 1019.52 1019.68 1019.82 1019.95 1020.06 1020.16 1020.23 1020.28 1020.30 1020.28
1013.52 1013.83 1014.14 1014.41 1014.65 1014.82 1014.92 1014.93 1014.83 1014.64 1014.36 1014.01 1013.61 1013.20 1012.81 1012.49 1012.27 1012.16 1012.18 1012.34 1012.64 1013.07 1013.59 1014.21 1014.87 1015.55 1016.24 1016.90 1017.53 1018.09 1018.58 1019.00 1019.35 1019.64 1019.87 1020.05 1020.20 1020.33 1020.44 1020.53 1020.60 1020.65 1020.68 1020.69
1013.39 1013.69 1013.97 1014.21 1014.38 1014.47 1014.47 1014.37 1014.19 1013.93 1013.61 1013.26 1012.90 1012.57 1012.27 1012.05 1011.92 1011.88 1011.95 1012.14 1012.43 1012.82 1013.31 1013.89 1014.52 1015.20 1015.91 1016.61 1017.30 1017.94 1018.53 1019.03 1019.46 1019.81 1020.09 1020.31 1020.49 1020.62 1020.74 1020.84 1020.93 1021.00 1021.05 1021.09
1013.21 1013.49 1013.74 1013.92 1014.01 1014.02 1013.92 1013.72 1013.44 1013.11 1012.74 1012.39 1012.06 1011.78 1011.58 1011.46 1011.44 1011.50 1011.65 1011.89 1012.21 1012.61 1013.09 1013.64 1014.25 1014.92 1015.63 1016.35 1017.07 1017.76 1018.40 1018.97 1019.46 1019.87 1020.20 1020.46 1020.67 1020.85 1020.99 1021.12 1021.24 1021.35 1021.45 1021.54
1013.01 1013.24 1013.43 1013.54 1013.56 1013.47 1013.27 1012.97 1012.60 1012.19 1011.79 1011.42 1011.12 1010.90 1010.79 1010.79 1010.89 1011.07 1011.33 1011.66 1012.04 1012.48 1012.97 1013.51 1014.11 1014.76 1015.44 1016.15 1016.87 1017.57 1018.23 1018.83 1019.37 1019.82 1020.20 1020.51 1020.78 1021.00 1021.20 1021.39 1021.56 1021.73 1021.89 1022.03
1012.80 1012.95 1013.06 1013.09 1013.02 1012.84 1012.54 1012.16 1011.71 1011.25 1010.81 1010.45 1010.18 1010.04 1010.02 1010.14 1010.36 1010.68 1011.06 1011.49 1011.96 1012.46 1012.98 1013.53 1014.12 1014.74 1015.39 1016.06 1016.74 1017.42 1018.07 1018.67 1019.22 1019.70 1020.13 1020.49 1020.82 1021.11 1021.38 1021.63 1021.88 1022.12 1022.34 1022.54
1012.59 1012.64 1012.65 1012.58 1012.42 1012.16 1011.79 1011.34 1010.85 1010.36 1009.92 1009.57 1009.35 1009.28 1009.36 1009.59 1009.94 1010.39 1010.90 1011.44 1012.00 1012.57 1013.13 1013.69 1014.26 1014.85 1015.45 1016.07 1016.69 1017.32 1017.93 1018.51 1019.05 1019.55 1020.01 1020.43 1020.81 1021.17 1021.52 1021.85 1022.18 1022.48 1022.76 1023.01
1012.40 1012.32 1012.21 1012.04 1011.79 1011.46 1011.04 1010.57 1010.06 1009.59 1009.18 1008.88 1008.72 1008.73 1008.91 1009.24 1009.70 1010.26 1010.87 1011.51 1012.15 1012.77 1013.37 1013.95 1014.50 1015.05 1015.60 1016.16 1016.72 1017.28 1017.83 1018.38 1018.90 1019.41 1019.89 1020.35 1020.79 1021.21 1021.63 1022.03 1022.41 1022.77 1023.09 1023.37
1012.22 1011.98 1011.74 1011.47 1011.15 1010.77 1010.34 1009.88 1009.42 1008.99 1008.65 1008.43 1008.35 1008.44 1008.70 1009.11 1009.65 1010.29 1010.97 1011.68 1012.37 1013.04 1013.66 1014.24 1014.78 1015.29 1015.80 1016.29 1016.78 1017.28 1017.79 1018.29 1018.79 1019.29 1019.78 1020.27 1020.75 1021.23 1021.69 1022.14 1022.57 1022.96 1023.30 1023.58
1012.02 1011.62 1011.25 1010.88 1010.51 1010.12 1009.72 1009.32 1008.94 1008.61 1008.36 1008.24 1008.25 1008.41 1008.73 1009.20 1009.78 1010.45 1011.17 1011.89 1012.61 1013.29 1013.91 1014.49 1015.01 1015.50 1015.96 1016.41 1016.86 1017.31 1017.77 1018.24 1018.72 1019.21 1019.71 1020.21 1020.71 1021.21 1021.71 1022.18 1022.62 1023.01 1023.35 1023.62
1011.75 1011.21 1010.72 1010.28 1009.89 1009.53 1009.19 1008.89 1008.63 1008.43 1008.31 1008.29 1008.39 1008.62 1008.98 1009.46 1010.04 1010.69 1011.39 1012.10 1012.79 1013.45 1014.06 1014.62 1015.13 1015.60 1016.04 1016.47 1016.89 1017.31 1017.75 1018.20 1018.66 1019.15 1019.65 1020.16 1020.67 1021.18 1021.67 1022.14 1022.57 1022.94 1023.25 1023.50
1011.38 1010.71 1010.14 1009.68 1009.30 1009.00 1008.77 1008.60 1008.49 1008.43 1008.44 1008.53 1008.71 1008.98 1009.35 1009.81 1010.35 1010.95 1011.58 1012.22 1012.86 1013.47 1014.04 1014.58 1015.08 1015.54 1015.98 1016.40 1016.82 1017.24 1017.68 1018.12 1018.59 1019.07 1019.57 1020.08 1020.59 1021.09 1021.57 1022.02 1022.42 1022.77 1023.04 1023.25
1010.86 1010.13 1009.53 1009.08 1008.77 1008.57 1008.47 1008.45 1008.49 1008.59 1008.73 1008.91 1009.15 1009.44 1009.79 1010.20 1010.65 1011.15 1011.68 1012.23 1012.78 1013.32 1013.84 1014.35 1014.83 1015.29 1015.73 1016.17 1016.61 1017.05 1017.50 1017.96 1018.44 1018.93 1019.44 1019.95 1020.45 1020.94 1021.40 1021.82 1022.19 1022.50 1022.75 1022.92
Thickness
5482 5489 5501 5515 5525 5536 5541 5544 5549 5557 5571 5574 5577 5586 5596 5607 5613 5618 5624 5631 5638 5646 5654 5659 5664 5669 5673 5677 5680 5682 5684 5686 5687 5686 5686 5685 5686 5686 5686 5686 5685 5683 5681 5679
5474 5486 5504 5515 5522 5529 5535 5538 5544 5554 5565 5567 5568 5577 5588 5597 5606 5614 5619 5625 5632 5638 5645 5650 5655 5659 5664 5667 5671 5674 5676 5678 5680 5681 5681 5681 5681 5681 5681 5681 5680 5679 5677 5675
5473 5489 5504 5511 5516 5521 5527 5533 5538 5547 5557 5561 5561 5565 5577 5592 5601 5609 5616 5623 5628 5633 5637 5641 5645 5649 5653 5657 5661 5666 5667 5670 5672 5674 5674 5674 5673 5673 5673 5673 5673 5672 5671 5670
5472 5488 5498 5505 5512 5519 5523 5534 5539 5544 5543 5544 5553 5548 5570 5584 5592 5602 5610 5615 5621 5627 5630 5633 5637 5640 5644 5648 5652 5656 5659 5661 5663 5665 5666 5666 5665 5664 5665 5665 5665 5665 5664 5663
5472 5485 5495 5502 5512 5519 5524 5534 5537 5539 5538 5539 5546 5545 5563 5577 5585 5601 5608 5611 5615 5619 5622 5625 5629 5632 5635 5638 5642 5645 5649 5651 5653 5655 5656 5656 5656 5656 5656 5656 5657 5657 5656 5655
5475 5484 5493 5503 5512 5519 5522 5526 5528 5529 5529 5530 5540 5540 5556 5572 5590 5601 5604 5606 5609 5610 5613 5616 5620 5623 5625 5628 5631 5635 5638 5639 5642 5644 5646 5647 5647 5647 5647 5647 5647 5647 5647 5647
5475 5483 5492 5502 5507 5512 5515 5515 5517 5520 5522 5527 5538 5541 5561 5582 5591 5598 5601 5600 5600 5602 5604 5607 5609 5612 5614 5617 5620 5623 5626 5628 5630 5632 5634 5636 5637 5637 5637 5637 5638 5638 5637 5637
5472 5480 5493 5502 5509 5512 5513 5516 5516 5518 5519 5522 5535 5541 5565 5580 5589 5595 5597 5595 5594 5594 5595 5598 5600 5601 5603 5607 5609 5612 5614 5616 5618 5620 5622 5624 5625 5626 5627 5627 5627 5627 5626 5626
5480 5486 5497 5504 5511 5514 5512 5512 5520 5516 5519 5521 5529 5546 5562 5574 5579 5583 5585 5586 5586 5586 5587 5588 5589 5591 5593 5595 5598 5600 5603 5604 5606 5608 5611 5612 5613 5614 5615 5615 5616 5615 5615 5615
5490 5490 5497 5502 5508 5511 5515 5516 5510 5509 5513 5523 5535 5543 5552 5565 5568 5573 5576 5577 5577 5578 5578 5578 5579 5580 5582 5584 5586 5588 5591 5592 5594 5596 5598 5600 5600 5602 5603 5603 5603 5603 5603 5604
5491 5491 5495 5499 5504 5509 5511 5512 5513 5510 5513 5518 5525 5542 5561 5564 5567 5568 5569 5569 5570 5569 5569 5568 5569 5570 5571 5572 5575 5577 5579 5580 5582 5584 5585 5587 5588 5589 5590 5591 5590 5591 5591 5591
5496 5490 5493 5498 5506 5512 5515 5516 5513 5511 5513 5510 5511 5536 5563 5562 5563 5563 5562 5564 5563 5563 5561 5560 5560 5560 5560 5561 5563 5565 5567 5568 5570 5572 5573 5574 5575 5577 5577 5577 5578 5578 5578 5578
5502 5492 5490 5494 5498 5506 5511 5516 5517 5515 5507 5500 5504 5534 5556 5556 5556 5559 5557 5556 5555 5554 5553 5551 5550 5551 5551 5551 5553 5554 5556 5557 5559 5560 5561 5562 5563 5564 5564 5564 5565 5565 5565 5564
5506 5495 5492 5497 5503 5504 5506 5513 5516 5509 5501 5503 5513 5533 5548 5550 5551 5551 5551 5549 5547 5547 5546 5544 5542 5542 5542 5542 5543 5544 5545 5547 5548 5549 5549 5550 5550 5551 5551 5552 5552 5552 5551 5551
5505 5497 5501 5506 5513 5509 5510 5513 5513 5510 5509 5508 5524 5532 5544 5546 5548 5548 5546 5544 5542 5541 5540 5539 5536 5534 5533 5533 5533 5534 5535 5536 5538 5538 5538 5538 5539 5539 5540 5539 5539 5539 5539 5538
5502 5500 5502 5505 5511 5511 5512 5514 5514 5515 5517 5517 5524 5532 5543 5545 5543 5542 5542 5541 5540 5539 5538 5535 5533 5529 5526 5526 5526 5526 5526 5527 5528 5528 5527 5527 5528 5528 5528 5527 5527 5526 5525 5524
5495 5495 5493 5490 5505 5506 5501 5516 5517 5516 5521 5522 5525 5534 5539 5539 5540 5540 5539 5540 5540 5539 5536 5533 5529 5526 5523 5521 5520 5519 5518 5518 5518 5518 5518 5517 5517 5517 5517 5516 5515 5514 5513 5511
5493 5490 5484 5485 5492 5487 5513 5525 5524 5523 5526 5526 5531 5534 5537 5540 5540 5539 5538 5538 5538 5536 5533 5529 5525 5520 5517 5515 5514 5512 5511 5510 5509 5509 5508 5508 5508 5507 5506 5505 5504 5502 5501 5499
5493 5492 5484 5481 5480 5491 5513 5523 5523 5519 5522 5528 5530 5532 5533 5534 5532 5530 5533 5535 5535 5532 5529 5524 5519 5515 5511 5509 5507 5505 5503 5502 5501 5501 5500 5500 5499 5498 5496 5495 5493 5492 5490 5488
5490 5488 5482 5481 5483 5488 5513 5523 5525 5523 5520 5530 5530 5530 5529 5528 5523 5526 5528 5526 5524 5522 5519 5515 5511 5508 5505 5502 5501 5498 5496 5495 5494 5494 5493 5492 5491 5489 5488 5486 5484 5482 5480 5477
5481 5481 5479 5477 5481 5492 5511 5518 5520 5510 5518 5526 5528 5528 5526 5525 5525 5523 5519 5516 5514 5512 5510 5507 5504 5501 5499 5496 5494 5492 5490 5489 5488 5487 5486 5484 5483 5481 5479 5477 5475 5473 5470 5467
5476 5475 5476 5476 5479 5490 5512 5512 5511 5513 5518 5521 5522 5523 5522 5519 5517 5514 5512 5508 5506 5503 5501 5499 5496 5493 5491 5490 5489 5486 5484 5483 5482 5480 5478 5476 5475 5473 5471 5469 5466 5464 5461 5458
5478 5482 5481 5483 5492 5503 5507 5509 5512 5512 5514 5515 5514 5515 5514 5512 5509 5508 5505 5502 5499 5497 5495 5493 5490 5487 5485 5484 5483 5481 5479 5477 5475 5473 5471 5469 5468 5466 5464 5461 5459 5456 5453 5450
5481 5484 5483 5486 5493 5499 5502 5502 5505 5507 5508 5508 5508 5508 5507 5506 5504 5502 5499 5497 5494 5492 5490 5488 5485 5482 5480 5479 5478 5477 5474 5472 5470 5467 5465 5462 5460 5458 5456 5454 5452 5449 5446 5443
5478 5481 5480 5484 5492 5495 5497 5497 5498 5498 5498 5498 5499 5500 5499 5499 5498 5496 5494 5492 5490 5488 5486 5484 5482 5480 5477 5475 5473 5471 5469 5467 5464 5462 5459 5457 5455 5452 5449 5448 5445 5443 5442 5440
5471 5475 5477 5482 5489 5490 5492 5493 5491 5490 5490 5490 5491 5491 5491 5491 5490 5490 5488 5487 5486 5484 5482 5480 5478 5477 5474 5472 5469 5468 5466 5463 5460 5457 5454 5451 5449 5445 5443 5440 5438 5438 5437 5436